Tracking 19193 objects as of 24-Jun-2018
HD Live streaming from Space Station
objects crossing your sky now

IRIDIUM 54

Track IRIDIUM 54 now!
10-day predictions
IRIDIUM 54 is classified as:


NORAD ID: 25171
Int'l Code: 1998-010C
Perigee: 783.1 km
Apogee: 786.5 km
Inclination: 86.4 °
Period: 100.4 minutes
Semi major axis: 7155 km
RCS: 3.5028 m2 (large)
Launch date: February 18, 1998
Source: United States (US)
Launch site: AIR FORCE WESTERN TEST RANGE (AFWTR)
aabbcc
Your satellite tracking list
Your tracking list is empty




NASA's NSSDC Master Catalog

Two Line Element Set (TLE):
1 25171U 98010C   18175.44233325 -.00000007  00000-0 -94130-5 0  9993
2 25171  86.3976 194.8128 0002314  87.1522 272.9938 14.34220351 65281
Source of the keplerian elements: AFSPC